Year,Month,Day,Hour,Minute,Value (Times are PST for temperature in C)
2021,04,17,00,00,9.60
2021,04,17,00,01,9.60
2021,04,17,00,02,9.60
2021,04,17,00,03,9.60
2021,04,17,00,04,9.60
2021,04,17,00,05,9.60
2021,04,17,00,06,9.50
2021,04,17,00,07,9.50
2021,04,17,00,08,9.50
2021,04,17,00,09,9.50
2021,04,17,00,10,9.50
2021,04,17,00,11,9.40
2021,04,17,00,12,9.40
2021,04,17,00,13,9.40
2021,04,17,00,14,9.40
2021,04,17,00,15,9.30
2021,04,17,00,16,9.30
2021,04,17,00,17,9.30
2021,04,17,00,18,9.30
2021,04,17,00,19,9.30
2021,04,17,00,20,9.30
2021,04,17,00,21,9.30
2021,04,17,00,22,9.20
2021,04,17,00,23,9.20
2021,04,17,00,24,9.20
2021,04,17,00,25,9.20
2021,04,17,00,26,9.20
2021,04,17,00,27,9.10
2021,04,17,00,28,9.10
2021,04,17,00,29,9.10
2021,04,17,00,30,9.10
2021,04,17,00,31,9.10
2021,04,17,00,32,9.10
2021,04,17,00,33,9.10
2021,04,17,00,34,9.00
2021,04,17,00,35,9.00
2021,04,17,00,36,9.00
2021,04,17,00,37,9.00
2021,04,17,00,38,9.00
2021,04,17,00,39,9.00
2021,04,17,00,40,8.90
2021,04,17,00,41,8.90
2021,04,17,00,42,8.90
2021,04,17,00,43,8.90
2021,04,17,00,44,8.90
2021,04,17,00,45,8.90
2021,04,17,00,46,8.90
2021,04,17,00,47,8.80
2021,04,17,00,48,8.80
2021,04,17,00,49,8.80
2021,04,17,00,50,8.80
2021,04,17,00,51,8.80
2021,04,17,00,52,8.80
2021,04,17,00,53,8.80
2021,04,17,00,54,8.80
2021,04,17,00,55,8.80
2021,04,17,00,56,8.80
2021,04,17,00,57,8.80
2021,04,17,00,58,8.80
2021,04,17,00,59,8.70
2021,04,17,01,00,8.70
2021,04,17,01,01,8.70
2021,04,17,01,02,8.70
2021,04,17,01,03,8.70
2021,04,17,01,04,8.70
2021,04,17,01,05,8.70
2021,04,17,01,06,8.70
2021,04,17,01,07,8.70
2021,04,17,01,08,8.70
2021,04,17,01,09,8.70
2021,04,17,01,10,8.70
2021,04,17,01,11,8.70
2021,04,17,01,12,8.70
2021,04,17,01,13,8.60
2021,04,17,01,14,8.60
2021,04,17,01,15,8.60
2021,04,17,01,16,8.60
2021,04,17,01,17,8.60
2021,04,17,01,18,8.60
2021,04,17,01,19,8.60
2021,04,17,01,20,8.60
2021,04,17,01,21,8.60
2021,04,17,01,22,8.60
2021,04,17,01,23,8.50
2021,04,17,01,24,8.50
2021,04,17,01,25,8.50
2021,04,17,01,26,8.50
2021,04,17,01,27,8.40
2021,04,17,01,28,8.40
2021,04,17,01,29,8.40
2021,04,17,01,30,8.30
2021,04,17,01,31,8.30
2021,04,17,01,32,8.30
2021,04,17,01,33,8.30
2021,04,17,01,34,8.30
2021,04,17,01,35,8.20
2021,04,17,01,36,8.20
2021,04,17,01,37,8.20
2021,04,17,01,38,8.20
2021,04,17,01,39,8.20
2021,04,17,01,40,8.20
2021,04,17,01,41,8.20
2021,04,17,01,42,8.20
2021,04,17,01,43,8.20
2021,04,17,01,44,8.20
2021,04,17,01,45,8.20
2021,04,17,01,46,8.20
2021,04,17,01,47,8.10
2021,04,17,01,48,8.10
2021,04,17,01,49,8.10
2021,04,17,01,50,8.10
2021,04,17,01,51,8.10
2021,04,17,01,52,8.10
2021,04,17,01,53,8.00
2021,04,17,01,54,8.00
2021,04,17,01,55,8.10
2021,04,17,01,56,8.10
2021,04,17,01,57,8.10
2021,04,17,01,58,8.10
2021,04,17,01,59,8.10
2021,04,17,02,00,8.10
2021,04,17,02,01,8.10
2021,04,17,02,02,8.10
2021,04,17,02,03,8.10
2021,04,17,02,04,8.10
2021,04,17,02,05,8.10
2021,04,17,02,06,8.10
2021,04,17,02,07,8.00
2021,04,17,02,08,8.00
2021,04,17,02,09,8.00
2021,04,17,02,10,8.00
2021,04,17,02,11,7.90
2021,04,17,02,12,7.90
2021,04,17,02,13,7.90
2021,04,17,02,14,7.90
2021,04,17,02,15,7.90
2021,04,17,02,16,7.80
2021,04,17,02,17,7.80
2021,04,17,02,18,7.80
2021,04,17,02,19,7.80
2021,04,17,02,20,7.80
2021,04,17,02,21,7.70
2021,04,17,02,22,7.70
2021,04,17,02,23,7.70
2021,04,17,02,24,7.70
2021,04,17,02,25,7.70
2021,04,17,02,26,7.70
2021,04,17,02,27,7.70
2021,04,17,02,28,7.70
2021,04,17,02,29,7.60
2021,04,17,02,30,7.70
2021,04,17,02,31,7.60
2021,04,17,02,32,7.60
2021,04,17,02,33,7.60
2021,04,17,02,34,7.60
2021,04,17,02,35,7.60
2021,04,17,02,36,7.60
2021,04,17,02,37,7.60
2021,04,17,02,38,7.60
2021,04,17,02,39,7.60
2021,04,17,02,40,7.60
2021,04,17,02,41,7.50
2021,04,17,02,42,7.50
2021,04,17,02,43,7.40
2021,04,17,02,44,7.40
2021,04,17,02,45,7.40
2021,04,17,02,46,7.40
2021,04,17,02,47,7.40
2021,04,17,02,48,7.40
2021,04,17,02,49,7.40
2021,04,17,02,50,7.40
2021,04,17,02,51,7.40
2021,04,17,02,52,7.50
2021,04,17,02,53,7.50
2021,04,17,02,54,7.60
2021,04,17,02,55,7.60
2021,04,17,02,56,7.60
2021,04,17,02,57,7.60
2021,04,17,02,58,7.60
2021,04,17,02,59,7.60
2021,04,17,03,00,7.60
2021,04,17,03,01,7.60
2021,04,17,03,02,7.60
2021,04,17,03,03,7.60
2021,04,17,03,04,7.60
2021,04,17,03,05,7.60
2021,04,17,03,06,7.60
2021,04,17,03,07,7.60
2021,04,17,03,08,7.60
2021,04,17,03,09,7.50
2021,04,17,03,10,7.60
2021,04,17,03,11,7.60
2021,04,17,03,12,7.60
2021,04,17,03,13,7.60
2021,04,17,03,14,7.70
2021,04,17,03,15,7.70
2021,04,17,03,16,7.70
2021,04,17,03,17,7.70
2021,04,17,03,18,7.70
2021,04,17,03,19,7.70
2021,04,17,03,20,7.70
2021,04,17,03,21,7.70
2021,04,17,03,22,7.70
2021,04,17,03,23,7.60
2021,04,17,03,24,7.60
2021,04,17,03,25,7.60
2021,04,17,03,26,7.60
2021,04,17,03,27,7.60
2021,04,17,03,28,7.60
2021,04,17,03,29,7.60
2021,04,17,03,30,7.50
2021,04,17,03,31,7.50
2021,04,17,03,32,7.50
2021,04,17,03,33,7.50
2021,04,17,03,34,7.50
2021,04,17,03,35,7.50
2021,04,17,03,36,7.40
2021,04,17,03,37,7.40
2021,04,17,03,38,7.40
2021,04,17,03,39,7.40
2021,04,17,03,40,7.40
2021,04,17,03,41,7.40
2021,04,17,03,42,7.40
2021,04,17,03,43,7.40
2021,04,17,03,44,7.40
2021,04,17,03,45,7.40
2021,04,17,03,46,7.40
2021,04,17,03,47,7.30
2021,04,17,03,48,7.30
2021,04,17,03,49,7.30
2021,04,17,03,50,7.30
2021,04,17,03,51,7.30
2021,04,17,03,52,7.30
2021,04,17,03,53,7.30
2021,04,17,03,54,7.30
2021,04,17,03,55,7.20
2021,04,17,03,56,7.20
2021,04,17,03,57,7.20
2021,04,17,03,58,7.20
2021,04,17,03,59,7.20
2021,04,17,04,00,7.20
2021,04,17,04,01,7.10
2021,04,17,04,02,7.10
2021,04,17,04,03,7.10
2021,04,17,04,04,7.10
2021,04,17,04,05,7.10
2021,04,17,04,06,7.10
2021,04,17,04,07,7.00
2021,04,17,04,08,7.00
2021,04,17,04,09,7.00
2021,04,17,04,10,6.90
2021,04,17,04,11,6.90
2021,04,17,04,12,6.90
2021,04,17,04,13,6.90
2021,04,17,04,14,6.80
2021,04,17,04,15,6.80
2021,04,17,04,16,6.80
2021,04,17,04,17,6.80
2021,04,17,04,18,6.80
2021,04,17,04,19,6.70
2021,04,17,04,20,6.70
2021,04,17,04,21,6.70
2021,04,17,04,22,6.70
2021,04,17,04,23,6.70
2021,04,17,04,24,6.70
2021,04,17,04,25,6.70
2021,04,17,04,26,6.60
2021,04,17,04,27,6.60
2021,04,17,04,28,6.60
2021,04,17,04,29,6.60
2021,04,17,04,30,6.60
2021,04,17,04,31,6.60
2021,04,17,04,32,6.60
2021,04,17,04,33,6.70
2021,04,17,04,34,6.70
2021,04,17,04,35,6.70
2021,04,17,04,36,6.70
2021,04,17,04,37,6.70
2021,04,17,04,38,6.70
2021,04,17,04,39,6.70
2021,04,17,04,40,6.70
2021,04,17,04,41,6.70
2021,04,17,04,42,6.60
2021,04,17,04,43,6.60
2021,04,17,04,44,6.60
2021,04,17,04,45,6.60
2021,04,17,04,46,6.60
2021,04,17,04,47,6.60
2021,04,17,04,48,6.60
2021,04,17,04,49,6.50
2021,04,17,04,50,6.50
2021,04,17,04,51,6.50
2021,04,17,04,52,6.50
2021,04,17,04,53,6.50
2021,04,17,04,54,6.50
2021,04,17,04,55,6.50
2021,04,17,04,56,6.40
2021,04,17,04,57,6.50
2021,04,17,04,58,6.50
2021,04,17,04,59,6.50
2021,04,17,05,00,6.50
2021,04,17,05,01,6.50
2021,04,17,05,02,6.50
2021,04,17,05,03,6.60
2021,04,17,05,04,6.60
2021,04,17,05,05,6.60
2021,04,17,05,06,6.60
2021,04,17,05,07,6.60
2021,04,17,05,08,6.60
2021,04,17,05,09,6.60
2021,04,17,05,10,6.50
2021,04,17,05,11,6.50
2021,04,17,05,12,6.50
2021,04,17,05,13,6.50
2021,04,17,05,14,6.40
2021,04,17,05,15,6.40
2021,04,17,05,16,6.40
2021,04,17,05,17,6.40
2021,04,17,05,18,6.40
2021,04,17,05,19,6.40
2021,04,17,05,20,6.40
2021,04,17,05,21,6.40
2021,04,17,05,22,6.40
2021,04,17,05,23,6.40
2021,04,17,05,24,6.40
2021,04,17,05,25,6.40
2021,04,17,05,26,6.40
2021,04,17,05,27,6.30
2021,04,17,05,28,6.30
2021,04,17,05,29,6.30
2021,04,17,05,30,6.30
2021,04,17,05,31,6.30
2021,04,17,05,32,6.30
2021,04,17,05,33,6.30
2021,04,17,05,34,6.30
2021,04,17,05,35,6.30
2021,04,17,05,36,6.30
2021,04,17,05,37,6.30
2021,04,17,05,38,6.30
2021,04,17,05,39,6.30
2021,04,17,05,40,6.30
2021,04,17,05,41,6.20
2021,04,17,05,42,6.20
2021,04,17,05,43,6.20
2021,04,17,05,44,6.20
2021,04,17,05,45,6.20
2021,04,17,05,46,6.20
2021,04,17,05,47,6.10
2021,04,17,05,48,6.10
2021,04,17,05,49,6.10
2021,04,17,05,50,6.10
2021,04,17,05,51,6.10
2021,04,17,05,52,6.00
2021,04,17,05,53,6.00
2021,04,17,05,54,6.00
2021,04,17,05,55,5.90
2021,04,17,05,56,5.90
2021,04,17,05,57,5.90
2021,04,17,05,58,5.90
2021,04,17,05,59,5.90
2021,04,17,06,00,5.90
2021,04,17,06,01,5.90
2021,04,17,06,02,5.90
2021,04,17,06,03,5.90
2021,04,17,06,04,5.90
2021,04,17,06,05,5.90
2021,04,17,06,06,5.90
2021,04,17,06,07,6.00
2021,04,17,06,08,6.00
2021,04,17,06,09,6.00
2021,04,17,06,10,6.00
2021,04,17,06,11,6.10
2021,04,17,06,12,6.10
2021,04,17,06,13,6.10
2021,04,17,06,14,6.20
2021,04,17,06,15,6.10
2021,04,17,06,16,6.10
2021,04,17,06,17,6.20
2021,04,17,06,18,6.20
2021,04,17,06,19,6.20
2021,04,17,06,20,6.20
2021,04,17,06,21,6.10
2021,04,17,06,22,6.20
2021,04,17,06,23,6.20
2021,04,17,06,24,6.20
2021,04,17,06,25,6.20
2021,04,17,06,26,6.20
2021,04,17,06,27,6.30
2021,04,17,06,28,6.30
2021,04,17,06,29,6.30
2021,04,17,06,30,6.30
2021,04,17,06,31,6.30
2021,04,17,06,32,6.40
2021,04,17,06,33,6.40
2021,04,17,06,34,6.40
2021,04,17,06,35,6.40
2021,04,17,06,36,6.40
2021,04,17,06,37,6.40
2021,04,17,06,38,6.40
2021,04,17,06,39,6.40
2021,04,17,06,40,6.50
2021,04,17,06,41,6.50
2021,04,17,06,42,6.50
2021,04,17,06,43,6.60
2021,04,17,06,44,6.60
2021,04,17,06,45,6.60
2021,04,17,06,46,6.70
2021,04,17,06,47,6.70
2021,04,17,06,48,6.80
2021,04,17,06,49,6.80
2021,04,17,06,50,6.80
2021,04,17,06,51,6.90
2021,04,17,06,52,7.00
2021,04,17,06,53,7.00
2021,04,17,06,54,7.10
2021,04,17,06,55,7.10
2021,04,17,06,56,7.20
2021,04,17,06,57,7.20
2021,04,17,06,58,7.30
2021,04,17,06,59,7.30
2021,04,17,07,00,7.40
2021,04,17,07,01,7.50
2021,04,17,07,02,7.60
2021,04,17,07,03,7.70
2021,04,17,07,04,7.70
2021,04,17,07,05,7.80
2021,04,17,07,06,7.90
2021,04,17,07,07,7.90
2021,04,17,07,08,8.00
2021,04,17,07,09,8.10
2021,04,17,07,10,8.10
2021,04,17,07,11,8.10
2021,04,17,07,12,8.20
2021,04,17,07,13,8.20
2021,04,17,07,14,8.20
2021,04,17,07,15,8.30
2021,04,17,07,16,8.30
2021,04,17,07,17,8.30
2021,04,17,07,18,8.40
2021,04,17,07,19,8.40
2021,04,17,07,20,8.60
2021,04,17,07,21,8.70
2021,04,17,07,22,8.80
2021,04,17,07,23,8.90
2021,04,17,07,24,9.10
2021,04,17,07,25,9.20
2021,04,17,07,26,9.40
2021,04,17,07,27,9.60
2021,04,17,07,28,9.70
2021,04,17,07,29,9.90
2021,04,17,07,30,10.00
2021,04,17,07,31,10.10
2021,04,17,07,32,10.20
2021,04,17,07,33,10.40
2021,04,17,07,34,10.50
2021,04,17,07,35,10.70
2021,04,17,07,36,10.80
2021,04,17,07,37,10.90
2021,04,17,07,38,11.10
2021,04,17,07,39,11.20
2021,04,17,07,40,11.30
2021,04,17,07,41,11.40
2021,04,17,07,42,11.60
2021,04,17,07,43,11.80
2021,04,17,07,44,12.10
2021,04,17,07,45,12.20
2021,04,17,07,46,12.40
2021,04,17,07,47,12.50
2021,04,17,07,48,12.60
2021,04,17,07,49,12.60
2021,04,17,07,50,12.70
2021,04,17,07,51,12.80
2021,04,17,07,52,12.90
2021,04,17,07,53,13.00
2021,04,17,07,54,13.10
2021,04,17,07,55,13.20
2021,04,17,07,56,13.30
2021,04,17,07,57,13.40
2021,04,17,07,58,13.50
2021,04,17,07,59,13.60
2021,04,17,08,00,13.70
2021,04,17,08,01,13.80
2021,04,17,08,02,13.90
2021,04,17,08,03,14.00
2021,04,17,08,04,14.10
2021,04,17,08,05,14.20
2021,04,17,08,06,14.30
2021,04,17,08,07,14.40
2021,04,17,08,08,14.50
2021,04,17,08,09,14.60
2021,04,17,08,10,14.70
2021,04,17,08,11,14.90
2021,04,17,08,12,15.00
2021,04,17,08,13,15.10
2021,04,17,08,14,15.20
2021,04,17,08,15,15.30
2021,04,17,08,16,15.40
2021,04,17,08,17,15.40
2021,04,17,08,18,15.50
2021,04,17,08,19,15.50
2021,04,17,08,20,15.60
2021,04,17,08,21,15.70
2021,04,17,08,22,15.70
2021,04,17,08,23,15.80
2021,04,17,08,24,15.90
2021,04,17,08,25,15.90
2021,04,17,08,26,16.00
2021,04,17,08,27,16.20
2021,04,17,08,28,16.30
2021,04,17,08,29,16.40
2021,04,17,08,30,16.50
2021,04,17,08,31,16.60
2021,04,17,08,32,16.80
2021,04,17,08,33,16.90
2021,04,17,08,34,17.00
2021,04,17,08,35,17.10
2021,04,17,08,36,17.10
2021,04,17,08,37,17.20
2021,04,17,08,38,17.20
2021,04,17,08,39,17.30
2021,04,17,08,40,17.30
2021,04,17,08,41,17.40
2021,04,17,08,42,17.40
2021,04,17,08,43,17.50
2021,04,17,08,44,17.50
2021,04,17,08,45,17.60
2021,04,17,08,46,17.60
2021,04,17,08,47,17.70
2021,04,17,08,48,17.80
2021,04,17,08,49,17.90
2021,04,17,08,50,18.00
2021,04,17,08,51,18.10
2021,04,17,08,52,18.10
2021,04,17,08,53,18.20
2021,04,17,08,54,18.20
2021,04,17,08,55,18.30
2021,04,17,08,56,18.30
2021,04,17,08,57,18.20
2021,04,17,08,58,18.20
2021,04,17,08,59,18.30
2021,04,17,09,00,18.30
2021,04,17,09,01,18.30
2021,04,17,09,02,18.30
2021,04,17,09,03,18.30
2021,04,17,09,04,18.30
2021,04,17,09,05,18.40
2021,04,17,09,06,18.40
2021,04,17,09,07,18.40
2021,04,17,09,08,18.50
2021,04,17,09,09,18.50
2021,04,17,09,10,18.50
2021,04,17,09,11,18.50
2021,04,17,09,12,18.50
2021,04,17,09,13,18.50
2021,04,17,09,14,18.40
2021,04,17,09,15,18.40
2021,04,17,09,16,18.40
2021,04,17,09,17,18.40
2021,04,17,09,18,18.40
2021,04,17,09,19,18.50
2021,04,17,09,20,18.50
2021,04,17,09,21,18.50
2021,04,17,09,22,18.50
2021,04,17,09,23,18.40
2021,04,17,09,24,18.50
2021,04,17,09,25,18.50
2021,04,17,09,26,18.60
2021,04,17,09,27,18.70
2021,04,17,09,28,18.70
2021,04,17,09,29,18.80
2021,04,17,09,30,18.90
2021,04,17,09,31,19.00
2021,04,17,09,32,19.10
2021,04,17,09,33,19.20
2021,04,17,09,34,19.20
2021,04,17,09,35,19.30
2021,04,17,09,36,19.30
2021,04,17,09,37,19.40
2021,04,17,09,38,19.40
2021,04,17,09,39,19.50
2021,04,17,09,40,19.60
2021,04,17,09,41,19.60
2021,04,17,09,42,19.70
2021,04,17,09,43,19.70
2021,04,17,09,44,19.70
2021,04,17,09,45,19.60
2021,04,17,09,46,19.50
2021,04,17,09,47,19.50
2021,04,17,09,48,19.50
2021,04,17,09,49,19.50
2021,04,17,09,50,19.50
2021,04,17,09,51,19.60
2021,04,17,09,52,19.70
2021,04,17,09,53,19.80
2021,04,17,09,54,19.80
2021,04,17,09,55,19.80
2021,04,17,09,56,19.60
2021,04,17,09,57,19.50
2021,04,17,09,58,19.50
2021,04,17,09,59,19.50
2021,04,17,10,00,19.50
2021,04,17,10,01,19.30
2021,04,17,10,02,19.20
2021,04,17,10,03,19.20
2021,04,17,10,04,19.30
2021,04,17,10,05,19.30
2021,04,17,10,06,19.30
2021,04,17,10,07,19.40
2021,04,17,10,08,19.50
2021,04,17,10,09,19.70
2021,04,17,10,10,19.70
2021,04,17,10,11,19.80
2021,04,17,10,12,19.80
2021,04,17,10,13,19.80
2021,04,17,10,14,19.80
2021,04,17,10,15,19.80
2021,04,17,10,16,19.60
2021,04,17,10,17,19.50
2021,04,17,10,18,19.40
2021,04,17,10,19,19.40
2021,04,17,10,20,19.50
2021,04,17,10,21,19.60
2021,04,17,10,22,19.60
2021,04,17,10,23,19.50
2021,04,17,10,24,19.40
2021,04,17,10,25,19.30
2021,04,17,10,26,19.40
2021,04,17,10,27,19.40
2021,04,17,10,28,19.40
2021,04,17,10,29,19.40
2021,04,17,10,30,19.30
2021,04,17,10,31,19.30
2021,04,17,10,32,19.30
2021,04,17,10,33,19.30
2021,04,17,10,34,19.40
2021,04,17,10,35,19.50
2021,04,17,10,36,19.60
2021,04,17,10,37,19.80
2021,04,17,10,38,20.00
2021,04,17,10,39,20.00
2021,04,17,10,40,20.10
2021,04,17,10,41,20.20
2021,04,17,10,42,20.20
2021,04,17,10,43,20.20
2021,04,17,10,44,20.20
2021,04,17,10,45,20.20
2021,04,17,10,46,20.20
2021,04,17,10,47,20.30
2021,04,17,10,48,20.30
2021,04,17,10,49,20.40
2021,04,17,10,50,20.50
2021,04,17,10,51,20.70
2021,04,17,10,52,20.80
2021,04,17,10,53,20.80
2021,04,17,10,54,20.70
2021,04,17,10,55,20.80
2021,04,17,10,56,20.80
2021,04,17,10,57,20.80
2021,04,17,10,58,20.80
2021,04,17,10,59,20.70
2021,04,17,11,00,20.70
2021,04,17,11,01,20.70
2021,04,17,11,02,20.70
2021,04,17,11,03,20.70
2021,04,17,11,04,20.70
2021,04,17,11,05,20.50
2021,04,17,11,06,20.40
2021,04,17,11,07,20.30
2021,04,17,11,08,20.40
2021,04,17,11,09,20.50
2021,04,17,11,10,20.70
2021,04,17,11,11,20.90
2021,04,17,11,12,20.90
2021,04,17,11,13,20.90
2021,04,17,11,14,20.80
2021,04,17,11,15,20.70
2021,04,17,11,16,20.50
2021,04,17,11,17,20.30
2021,04,17,11,18,20.20
2021,04,17,11,19,20.10
2021,04,17,11,20,19.90
2021,04,17,11,21,19.80
2021,04,17,11,22,19.70
2021,04,17,11,23,19.70
2021,04,17,11,24,19.70
2021,04,17,11,25,19.60
2021,04,17,11,26,19.60
2021,04,17,11,27,19.70
2021,04,17,11,28,19.80
2021,04,17,11,29,19.90
2021,04,17,11,30,20.00
2021,04,17,11,31,19.90
2021,04,17,11,32,19.80
2021,04,17,11,33,19.60
2021,04,17,11,34,19.60
2021,04,17,11,35,19.50
2021,04,17,11,36,19.70
2021,04,17,11,37,19.90
2021,04,17,11,38,20.00
2021,04,17,11,39,20.10
2021,04,17,11,40,20.10
2021,04,17,11,41,20.10
2021,04,17,11,42,20.10
2021,04,17,11,43,20.20
2021,04,17,11,44,20.30
2021,04,17,11,45,20.30
2021,04,17,11,46,20.20
2021,04,17,11,47,20.20
2021,04,17,11,48,20.30
2021,04,17,11,49,20.30
2021,04,17,11,50,20.30
2021,04,17,11,51,20.30
2021,04,17,11,52,20.40
2021,04,17,11,53,20.40
2021,04,17,11,54,20.40
2021,04,17,11,55,20.40
2021,04,17,11,56,20.50
2021,04,17,11,57,20.60
2021,04,17,11,58,20.60
2021,04,17,11,59,20.70
2021,04,17,12,00,20.70
2021,04,17,12,01,20.80
2021,04,17,12,02,21.00
2021,04,17,12,03,21.00
2021,04,17,12,04,21.00
2021,04,17,12,05,20.90
2021,04,17,12,06,20.90
2021,04,17,12,07,20.80
2021,04,17,12,08,20.80
2021,04,17,12,09,20.80
2021,04,17,12,10,20.80
2021,04,17,12,11,20.80
2021,04,17,12,12,20.90
2021,04,17,12,13,20.90
2021,04,17,12,14,21.00
2021,04,17,12,15,21.10
2021,04,17,12,16,21.10
2021,04,17,12,17,21.20
2021,04,17,12,18,21.30
2021,04,17,12,19,21.50
2021,04,17,12,20,21.70
2021,04,17,12,21,22.00
2021,04,17,12,22,22.20
2021,04,17,12,23,22.20
2021,04,17,12,24,22.30
2021,04,17,12,25,22.20
2021,04,17,12,26,22.20
2021,04,17,12,27,22.20
2021,04,17,12,28,22.10
2021,04,17,12,29,22.10
2021,04,17,12,30,22.10
2021,04,17,12,31,22.00
2021,04,17,12,32,21.90
2021,04,17,12,33,21.70
2021,04,17,12,34,21.50
2021,04,17,12,35,21.40
2021,04,17,12,36,21.30
2021,04,17,12,37,21.20
2021,04,17,12,38,21.30
2021,04,17,12,39,21.40
2021,04,17,12,40,21.40
2021,04,17,12,41,21.40
2021,04,17,12,42,21.40
2021,04,17,12,43,21.40
2021,04,17,12,44,21.40
2021,04,17,12,45,21.40
2021,04,17,12,46,21.60
2021,04,17,12,47,21.80
2021,04,17,12,48,21.80
2021,04,17,12,49,21.90
2021,04,17,12,50,21.80
2021,04,17,12,51,21.70
2021,04,17,12,52,21.60
2021,04,17,12,53,21.60
2021,04,17,12,54,21.60
2021,04,17,12,55,21.70
2021,04,17,12,56,21.80
2021,04,17,12,57,21.90
2021,04,17,12,58,22.00
2021,04,17,12,59,22.00
2021,04,17,13,00,22.00
2021,04,17,13,01,22.20
2021,04,17,13,02,22.30
2021,04,17,13,03,22.30
2021,04,17,13,04,22.20
2021,04,17,13,05,22.20
2021,04,17,13,06,22.10
2021,04,17,13,07,22.00
2021,04,17,13,08,21.90
2021,04,17,13,09,21.80
2021,04,17,13,10,21.80
2021,04,17,13,11,21.90
2021,04,17,13,12,22.00
2021,04,17,13,13,22.10
2021,04,17,13,14,22.30
2021,04,17,13,15,22.50
2021,04,17,13,16,22.60
2021,04,17,13,17,22.70
2021,04,17,13,18,22.60
2021,04,17,13,19,22.60
2021,04,17,13,20,22.60
2021,04,17,13,21,22.60
2021,04,17,13,22,22.50
2021,04,17,13,23,22.30
2021,04,17,13,24,22.20
2021,04,17,13,25,22.10
2021,04,17,13,26,22.10
2021,04,17,13,27,22.10
2021,04,17,13,28,22.20
2021,04,17,13,29,22.30
2021,04,17,13,30,22.20
2021,04,17,13,31,22.10
2021,04,17,13,32,22.00
2021,04,17,13,33,21.90
2021,04,17,13,34,21.90
2021,04,17,13,35,22.00
2021,04,17,13,36,22.10
2021,04,17,13,37,22.00
2021,04,17,13,38,21.90
2021,04,17,13,39,22.00
2021,04,17,13,40,22.20
2021,04,17,13,41,22.30
2021,04,17,13,42,22.30
2021,04,17,13,43,22.40
2021,04,17,13,44,22.40
2021,04,17,13,45,22.40
2021,04,17,13,46,22.50
2021,04,17,13,47,22.60
2021,04,17,13,48,22.70
2021,04,17,13,49,22.70
2021,04,17,13,50,22.60
2021,04,17,13,51,22.50
2021,04,17,13,52,22.50
2021,04,17,13,53,22.60
2021,04,17,13,54,22.80
2021,04,17,13,55,22.90
2021,04,17,13,56,23.10
2021,04,17,13,57,23.10
2021,04,17,13,58,23.20
2021,04,17,13,59,23.10
2021,04,17,14,00,23.10
2021,04,17,14,01,23.10
2021,04,17,14,02,23.20
2021,04,17,14,03,23.30
2021,04,17,14,04,23.50
2021,04,17,14,05,23.70
2021,04,17,14,06,23.80
2021,04,17,14,07,23.90
2021,04,17,14,08,24.10
2021,04,17,14,09,24.10
2021,04,17,14,10,23.90
2021,04,17,14,11,23.70
2021,04,17,14,12,23.60
2021,04,17,14,13,23.60
2021,04,17,14,14,23.60
2021,04,17,14,15,23.50
2021,04,17,14,16,23.50
2021,04,17,14,17,23.50
2021,04,17,14,18,23.60
2021,04,17,14,19,23.60
2021,04,17,14,20,23.50
2021,04,17,14,21,23.40
2021,04,17,14,22,23.40
2021,04,17,14,23,23.60
2021,04,17,14,24,23.60
2021,04,17,14,25,23.70
2021,04,17,14,26,23.80
2021,04,17,14,27,23.80
2021,04,17,14,28,23.80
2021,04,17,14,29,23.80
2021,04,17,14,30,23.80
2021,04,17,14,31,23.90
2021,04,17,14,32,24.00
2021,04,17,14,33,24.10
2021,04,17,14,34,24.10
2021,04,17,14,35,24.00
2021,04,17,14,36,24.00
2021,04,17,14,37,24.00
2021,04,17,14,38,23.80
2021,04,17,14,39,23.90
2021,04,17,14,40,24.00
2021,04,17,14,41,24.10
2021,04,17,14,42,24.20
2021,04,17,14,43,24.30
2021,04,17,14,44,24.30
2021,04,17,14,45,24.40
2021,04,17,14,46,24.40
2021,04,17,14,47,24.50
2021,04,17,14,48,24.60
2021,04,17,14,49,24.60
2021,04,17,14,50,24.60
2021,04,17,14,51,24.50
2021,04,17,14,52,24.40
2021,04,17,14,53,24.30
2021,04,17,14,54,24.40
2021,04,17,14,55,24.50
2021,04,17,14,56,24.60
2021,04,17,14,57,24.60
2021,04,17,14,58,24.40
2021,04,17,14,59,24.40
2021,04,17,15,00,24.40
2021,04,17,15,01,24.40
2021,04,17,15,02,24.40
2021,04,17,15,03,24.60
2021,04,17,15,04,24.70
2021,04,17,15,05,24.70
2021,04,17,15,06,24.80
2021,04,17,15,07,24.80
2021,04,17,15,08,24.80
2021,04,17,15,09,24.70
2021,04,17,15,10,24.60
2021,04,17,15,11,24.60
2021,04,17,15,12,24.60
2021,04,17,15,13,24.60
2021,04,17,15,14,24.60
2021,04,17,15,15,24.70
2021,04,17,15,16,24.70
2021,04,17,15,17,24.50
2021,04,17,15,18,24.40
2021,04,17,15,19,24.40
2021,04,17,15,20,24.40
2021,04,17,15,21,24.30
2021,04,17,15,22,24.20
2021,04,17,15,23,24.10
2021,04,17,15,24,24.20
2021,04,17,15,25,24.20
2021,04,17,15,26,24.20
2021,04,17,15,27,24.30
2021,04,17,15,28,24.40
2021,04,17,15,29,24.60
2021,04,17,15,30,24.60
2021,04,17,15,31,24.70
2021,04,17,15,32,24.80
2021,04,17,15,33,24.90
2021,04,17,15,34,24.90
2021,04,17,15,35,25.00
2021,04,17,15,36,25.10
2021,04,17,15,37,25.20
2021,04,17,15,38,25.30
2021,04,17,15,39,25.40
2021,04,17,15,40,25.40
2021,04,17,15,41,25.40
2021,04,17,15,42,25.40
2021,04,17,15,43,25.30
2021,04,17,15,44,25.40
2021,04,17,15,45,25.40
2021,04,17,15,46,25.30
2021,04,17,15,47,25.20
2021,04,17,15,48,25.20
2021,04,17,15,49,25.10
2021,04,17,15,50,25.10
2021,04,17,15,51,25.10
2021,04,17,15,52,25.10
2021,04,17,15,53,25.10
2021,04,17,15,54,25.10
2021,04,17,15,55,25.10
2021,04,17,15,56,25.10
2021,04,17,15,57,25.20
2021,04,17,15,58,25.10
2021,04,17,15,59,25.20
2021,04,17,16,00,25.30
2021,04,17,16,01,25.40
2021,04,17,16,02,25.50
2021,04,17,16,03,25.60
2021,04,17,16,04,25.70
2021,04,17,16,05,25.70
2021,04,17,16,06,25.80
2021,04,17,16,07,25.80
2021,04,17,16,08,25.80
2021,04,17,16,09,25.90
2021,04,17,16,10,25.90
2021,04,17,16,11,26.00
2021,04,17,16,12,26.00
2021,04,17,16,13,26.10
2021,04,17,16,14,26.20
2021,04,17,16,15,26.30
2021,04,17,16,16,26.20
2021,04,17,16,17,26.10
2021,04,17,16,18,26.00
2021,04,17,16,19,26.00
2021,04,17,16,20,26.00
2021,04,17,16,21,26.00
2021,04,17,16,22,25.80
2021,04,17,16,23,25.50
2021,04,17,16,24,25.30
2021,04,17,16,25,25.20
2021,04,17,16,26,25.20
2021,04,17,16,27,25.20
2021,04,17,16,28,25.30
2021,04,17,16,29,25.30
2021,04,17,16,30,25.20
2021,04,17,16,31,25.10
2021,04,17,16,32,25.10
2021,04,17,16,33,25.10
2021,04,17,16,34,25.10
2021,04,17,16,35,25.00
2021,04,17,16,36,24.90
2021,04,17,16,37,24.90
2021,04,17,16,38,24.90
2021,04,17,16,39,25.00
2021,04,17,16,40,25.00
2021,04,17,16,41,25.00
2021,04,17,16,42,25.00
2021,04,17,16,43,25.10
2021,04,17,16,44,25.20
2021,04,17,16,45,25.20
2021,04,17,16,46,25.30
2021,04,17,16,47,25.30
2021,04,17,16,48,25.20
2021,04,17,16,49,25.20
2021,04,17,16,50,25.10
2021,04,17,16,51,25.00
2021,04,17,16,52,24.90
2021,04,17,16,53,24.90
2021,04,17,16,54,25.10
2021,04,17,16,55,25.20
2021,04,17,16,56,25.30
2021,04,17,16,57,25.30
2021,04,17,16,58,25.30
2021,04,17,16,59,25.30
2021,04,17,17,00,25.30
2021,04,17,17,01,25.30
2021,04,17,17,02,25.40
2021,04,17,17,03,25.50
2021,04,17,17,04,25.60
2021,04,17,17,05,25.60
2021,04,17,17,06,25.60
2021,04,17,17,07,25.60
2021,04,17,17,08,25.60
2021,04,17,17,09,25.60
2021,04,17,17,10,25.60
2021,04,17,17,11,25.60
2021,04,17,17,12,25.50
2021,04,17,17,13,25.40
2021,04,17,17,14,25.30
2021,04,17,17,15,25.20
2021,04,17,17,16,25.20
2021,04,17,17,17,25.20
2021,04,17,17,18,25.30
2021,04,17,17,19,25.40
2021,04,17,17,20,25.40
2021,04,17,17,21,25.40
2021,04,17,17,22,25.50
2021,04,17,17,23,25.50
2021,04,17,17,24,25.50
2021,04,17,17,25,25.40
2021,04,17,17,26,25.30
2021,04,17,17,27,25.30
2021,04,17,17,28,25.30
2021,04,17,17,29,25.20
2021,04,17,17,30,25.10
2021,04,17,17,31,25.10
2021,04,17,17,32,25.10
2021,04,17,17,33,25.20
2021,04,17,17,34,25.20
2021,04,17,17,35,25.30
2021,04,17,17,36,25.30
2021,04,17,17,37,25.30
2021,04,17,17,38,25.30
2021,04,17,17,39,25.20